Terminal Aerodrome Forecast
Issued by NWS Jacksonville, FL

Home | Current Version | Previous Version | Text Only | Print | Product List | Glossary On
Versions: 1 2 3 4 5 6 7 8 9 10 11 12 13 14 15 16 17 18 19 20 21
000
FTUS42 KJAX 311001 AAB
TAFJAX
TAF AMD
KJAX 311001Z 3110/0106 21006KT P6SM FEW250
      TEMPO 3110/3112 5SM BR
     FM311300 24008KT P6SM SCT030
     FM312000 21008KT P6SM VCTS BKN040CB
      TEMPO 3120/3124 3SM TSRA BKN040CB
     FM010000 21005KT P6SM SKC=

USA.gov is the U.S. government's official web portal to all federal, state and local government web resources and services.